Hatteras, NC

5:56 AM EDT on August 17, 2017 (GMT -0400)
Mitchell

Weather History for KHSE - May, 2013

Change the Weather History Date:

Wednesday, May 1, 2013

  Actual Average Record
Temperature  
Mean Temperature 68 °F 63 °F  
Max Temperature 75 °F 70 °F 81 °F (1957)
Min Temperature 61 °F 57 °F 41 °F (1982)
Degree Days  
Heating Degree Days 0 3  
Month to date heating degree days 0 3  
Since 1 July heating degree days 2393 2537  
Cooling Degree Days 3 2  
Month to date cooling degree days 3 2  
Year to date cooling degree days 12 30  
Growing Degree Days 17 (Base 50)    
Moisture  
Dew Point 60 °F    
Average Humidity 79    
Maximum Humidity 93    
Minimum Humidity 64    
Precipitation  
Precipitation 0.00 in 0.12 in 1.72 in (1999)
Month to date precipitation 0.00 0.12  
Year to date precipitation 15.82 17.79  
Snow  
Snow 0.00 in - - ()
Month to date snowfall 0.0  
Since 1 July snowfall 0.0  
Snow Depth 0.00 in    
Sea Level Pressure  
Sea Level Pressure 30.18 in    
Wind  
Wind Speed 9 mph (NE)    
Max Wind Speed 16 mph    
Max Gust Speed 26 mph    
Visibility 9 miles    
Events      
T = Trace of Precipitation, MM = Missing Value Source: NWS Daily Summary

Daily Weather History Graph

Daily Weather History Graph

Search for Another Location

Airport or City:

Trip Planner

Search our weather history database for the weather conditions in past years. The results will help you decide how hot, cold, wet, or windy it might be!

Date:

Astronomy

May. 01, 2013 Rise Set
Actual Time 6:11 AM EDT 7:48 PM EDT
Civil Twilight 5:43 AM EDT 8:15 PM EDT
Nautical Twilight 5:11 AM EDT 8:48 PM EDT
Astronomical Twilight 4:36 AM EDT 9:23 PM EDT
Moon 12:55 AM EDT (5/1) 11:46 AM EDT (5/1)
Length of Visible Light 14h 31m
Length of Day
13h 37m
Waning Gibbous, 59% of the Moon is Illuminated
May 1
Waning Gibbous
May 2
Last Quarter
May 9
New
May 18
First Quarter
May 25
Full

Hourly Weather History & Observations

Time (EDT) Temp. Dew Point Humidity Pressure Visibility Wind Dir Wind Speed Gust Speed Precip Events Conditions
12:51 AM 61.0 °F 57.0 °F 87% 30.11 in 10.0 mi Variable 4.6 mph - N/A   Overcast
1:51 AM 61.0 °F 57.9 °F 90% 30.10 in 10.0 mi Variable 5.8 mph - N/A   Overcast
2:51 AM 62.1 °F 57.9 °F 86% 30.09 in 10.0 mi Variable 4.6 mph - N/A   Overcast
3:51 AM 62.1 °F 57.9 °F 86% 30.10 in 10.0 mi North 4.6 mph - N/A   Mostly Cloudy
4:51 AM 62.1 °F 57.9 °F 86% 30.09 in 10.0 mi Variable 3.5 mph - N/A   Mostly Cloudy
5:51 AM 62.1 °F 57.9 °F 86% 30.10 in 10.0 mi Variable 5.8 mph - N/A   Overcast
6:51 AM 62.1 °F 57.9 °F 86% 30.12 in 10.0 mi Variable 5.8 mph - N/A   Mostly Cloudy
7:17 AM 62.6 °F 59.0 °F 88% 30.13 in 2.5 mi Variable 5.8 mph - N/A   Overcast
7:27 AM 62.6 °F 59.0 °F 88% 30.13 in 1.5 mi North 5.8 mph - N/A   Overcast
7:51 AM 62.1 °F 60.1 °F 93% 30.14 in 2.5 mi NNE 6.9 mph - N/A   Overcast
8:00 AM 62.6 °F 60.8 °F 94% 30.15 in 4.0 mi Variable 5.8 mph - N/A   Overcast
8:51 AM 63.0 °F 59.0 °F 87% 30.15 in 10.0 mi NNE 9.2 mph - N/A   Overcast
9:51 AM 66.9 °F 60.1 °F 79% 30.16 in 10.0 mi NNE 8.1 mph - N/A   Mostly Cloudy
10:06 AM 66.2 °F 60.8 °F 83% 30.16 in 10.0 mi Variable 6.9 mph - N/A   Scattered Clouds
10:51 AM 66.9 °F 60.1 °F 79% 30.18 in 10.0 mi NNE 9.2 mph 17.3 mph N/A   Mostly Cloudy
11:04 AM 68.0 °F 60.8 °F 78% 30.18 in 10.0 mi NNE 8.1 mph - N/A   Scattered Clouds
11:51 AM 72.0 °F 62.1 °F 71% 30.18 in 10.0 mi East 9.2 mph 19.6 mph N/A   Mostly Cloudy
12:00 PM 73.4 °F 62.6 °F 69% 30.19 in 10.0 mi ESE 11.5 mph - N/A   Mostly Cloudy
12:51 PM 69.1 °F 61.0 °F 75% 30.19 in - ESE 12.7 mph - N/A   Overcast
1:51 PM 70.0 °F 61.0 °F 73% 30.20 in 10.0 mi ESE 10.4 mph - N/A   Overcast
2:09 PM 71.6 °F 60.8 °F 69% 30.20 in 10.0 mi East 9.2 mph 16.1 mph N/A   Overcast
2:38 PM 73.4 °F 60.8 °F 65% 30.20 in 10.0 mi East 11.5 mph - N/A   Mostly Cloudy
2:51 PM 73.0 °F 61.0 °F 66% 30.20 in 10.0 mi ENE 6.9 mph - N/A   Overcast
3:18 PM 69.8 °F 59.0 °F 68% 30.21 in 10.0 mi NE 6.9 mph 17.3 mph N/A   Overcast
3:51 PM 68.0 °F 59.0 °F 73% 30.22 in 10.0 mi ENE 8.1 mph - N/A   Overcast
4:51 PM 70.0 °F 60.1 °F 71% 30.21 in 10.0 mi Variable 6.9 mph 21.9 mph N/A   Clear
5:51 PM 66.9 °F 60.1 °F 79% 30.22 in 10.0 mi ENE 16.1 mph 25.3 mph N/A   Clear
6:51 PM 64.0 °F 59.0 °F 84% 30.23 in 10.0 mi ENE 11.5 mph 19.6 mph N/A   Mostly Cloudy
7:51 PM 64.9 °F 60.1 °F 84% 30.24 in 10.0 mi NE 11.5 mph 18.4 mph N/A   Overcast
8:22 PM 64.4 °F 60.8 °F 88% 30.24 in 10.0 mi NE 9.2 mph 19.6 mph N/A   Mostly Cloudy
8:51 PM 63.0 °F 60.1 °F 90% 30.25 in 10.0 mi NE 11.5 mph 19.6 mph N/A   Overcast
9:07 PM 62.6 °F 60.8 °F 94% 30.26 in 9.0 mi NE 9.2 mph 23.0 mph N/A   Overcast
9:17 PM 62.6 °F 59.0 °F 88% 30.26 in 9.0 mi NE 9.2 mph 18.4 mph N/A   Mostly Cloudy
9:51 PM 62.1 °F 59.0 °F 90% 30.27 in 9.0 mi NE 9.2 mph 17.3 mph N/A   Mostly Cloudy
10:51 PM 62.1 °F 59.0 °F 90% 30.27 in 9.0 mi NE 9.2 mph 18.4 mph N/A   Partly Cloudy
11:51 PM 63.0 °F 60.1 °F 90% 30.26 in 10.0 mi NE 10.4 mph - N/A   Mostly Cloudy